Vorticity
3 3 2 7 15 5 10 4 1 9 1 13 9 6 3 2 -1 6 3 -1 -1 2 2 3 3 4 5 6 6 7 6 5 6 9 8 8 11 11 10 8 7 7 7 6 6 5 4 4 4
4 3 3 6 9 5 16 9 17 4 6 6 4 7 16 9 8 1 3 2 4 2 4 4 3 4 4 4 5 6 7 6 5 6 6 9 9 8 10 9 8 7 6 6 5 5 5 5 5
3 5 4 12 13 5 6 -11 11 12 13 2 -2 1 6 8 1 2 5 4 3 4 3 4 4 5 3 3 3 5 6 7 7 7 6 7 7 10 10 9 7 6 6 5 5 6 5 6 6
4 5 8 10 -4 8 -2 3 -0 3 6 14 7 7 8 6 6 7 5 3 2 4 2 4 4 4 4 3 2 3 6 7 8 8 8 8 6 8 7 11 9 8 7 7 7 7 8 8 8
5 5 5 -2 5 10 2 1 -2 10 5 5 8 12 -0 6 6 7 4 3 4 3 3 4 4 4 4 4 2 3 5 7 8 8 10 9 9 8 7 7 7 9 10 10 10 10 10 10 9
7 4 -5 6 4 6 1 -1 4 4 3 14 14 6 4 2 2 4 6 6 5 4 4 3 3 4 5 4 2 3 5 5 6 9 10 12 10 10 9 9 9 8 7 6 6 6 6 6 6
5 5 0 1 2 6 4 17 8 4 8 14 13 6 10 3 7 5 7 5 6 5 4 4 3 4 5 3 2 3 5 3 5 8 9 10 12 11 10 8 8 8 8 7 8 8 8 7 6
6 6 3 3 2 10 -1 -8 11 2 0 6 15 11 19 13 4 2 5 6 7 4 3 4 3 4 4 2 2 3 5 2 5 8 7 7 8 9 9 9 9 8 8 7 7 5 5 5 4
7 -1 5 1 3 2 -3 7 5 3 0 1 11 -2 1 3 10 9 1 4 6 4 6 2 3 4 3 3 2 4 4 3 5 8 7 6 5 4 4 3 3 3 4 4 4 4 4 5 5
8 3 1 2 6 2 6 -10 -12 8 9 6 8 22 6 9 3 11 2 5 2 4 4 4 6 3 4 2 3 3 2 5 5 8 9 4 6 4 4 3 3 4 4 5 6 6 7 7 8
5 3 8 1 3 3 7 4 3 -5 4 0 1 9 6 13 10 7 2 5 2 3 4 7 4 3 3 1 2 0 3 4 5 8 7 7 5 4 3 4 4 4 5 6 4 8 7 6 6
7 8 4 4 5 7 7 4 3 1 2 4 5 2 5 1 -7 3 7 8 8 9 7 5 3 2 -0 3 0 2 4 7 6 5 6 7 5 5 4 4 4 5 6 6 5 4 3 4 4
8 8 8 9 6 3 6 11 3 2 -2 -1 10 5 0 12 -0 -1 3 3 3 3 7 3 3 1 -1 1 1 8 2 8 5 5 7 7 6 5 5 5 6 6 5 4 3 4 4 5 6
2 32 8 10 9 15 16 9 0 5 2 -3 -2 8 15 20 14 -1 -4 -2 -2 2 7 3 0 -3 2 3 2 6 8 5 6 6 7 6 4 4 5 5 6 4 4 3 4 5 6 7 7
15 -6 16 13 5 2 2 8 6 6 -3 8 1 18 17 16 9 9 12 14 13 5 7 4 4 5 4 1 4 9 8 6 7 8 7 5 4 5 5 6 5 4 4 5 6 7 6 5 5
24 13 4 5 12 19 1 2 10 8 -5 -2 10 28 11 9 5 3 4 11 12 12 9 8 4 3 2 3 7 10 7 7 10 9 6 4 5 5 7 5 5 5 5 6 6 5 5 10 15
12 0 22 23 -1 4 14 -0 8 6 1 5 18 17 14 8 6 9 10 12 11 15 11 6 4 3 3 7 13 10 7 9 9 6 5 5 6 7 7 7 6 5 5 5 4 7 14 13 5
-0 8 16 -12 29 31 9 6 7 7 8 -0 9 -6 15 11 3 4 5 2 10 11 15 10 6 6 10 16 9 6 9 10 9 7 6 7 7 8 7 5 5 4 4 6 12 15 5 7 8
-9 6 -9 10 50 -9 -9 16 21 10 6 0 -5 27 5 11 -2 5 6 4 10 12 14 11 11 16 17 6 6 11 11 9 6 6 6 8 9 7 6 4 4 6 10 16 8 8 8 7 7
0 2 4 10 -13 -0 14 16 9 7 2 1 22 -11 17 -1 0 7 6 4 12 17 20 19 17 9 4 8 10 10 7 5 6 8 9 8 7 5 4 5 8 11 12 7 7 9 8 7 5
17 2 -1 -13 8 -10 4 13 16 23 7 1 8 1 14 6 1 8 10 13 13 16 17 12 5 6 7 9 9 6 7 9 10 8 8 5 4 4 6 9 11 10 9 7 8 8 7 6 5
8 9 18 13 5 18 17 11 25 41 15 9 -11 -0 10 -6 4 1 1 14 14 14 9 5 6 7 8 6 6 8 10 10 7 6 5 4 5 8 10 10 10 9 9 8 7 7 7 7 6
11 16 5 9 20 9 12 10 17 34 0 22 22 7 -2 -2 11 3 2 16 13 11 7 7 6 7 4 6 10 9 5 5 5 6 6 7 9 10 8 8 7 6 6 7 6 7 8 8 8
-24 27 -7 20 2 37 5 -17 43 5 17 4 29 8 -1 4 15 6 3 9 10 11 7 6 5 5 8 11 6 4 5 6 6 5 7 9 8 8 6 6 5 5 6 6 6 8 9 10 9
27 -5 21 31 21 6 32 38 -41 14 22 30 2 14 8 24 9 0 7 6 8 10 8 4 5 7 9 7 4 4 3 4 5 5 7 6 5 5 5 5 5 5 5 6 8 10 11 10 8
28 -0 -32 6 7 21 6 8 -16 52 -27 19 10 13 14 12 4 5 4 5 14 11 7 5 6 8 7 2 2 3 3 3 3 4 5 5 4 4 4 5 5 5 5 7 9 10 10 9 8
23 33 4 -46 8 18 1 29 14 15 24 -1 13 26 33 27 10 -1 9 6 21 10 5 6 6 4 1 1 3 3 4 4 3 3 5 4 4 4 4 5 5 5 6 8 10 11 9 8 8
0 31 29 1 12 9 21 12 -39 30 42 2 22 9 18 17 7 4 12 14 19 7 5 5 4 2 2 3 2 2 3 4 4 3 4 4 4 4 5 6 5 5 8 9 11 10 9 7 7
30 -22 1 23 -64 1 13 13 21 64 21 20 14 14 15 13 18 18 13 17 15 5 4 5 3 4 3 3 2 2 2 3 3 4 4 4 4 5 6 6 6 7 8 11 10 9 7 6 7
40 17 -29 -6 44 -1 -32 2 20 14 11 7 0 11 10 12 18 16 12 19 12 4 4 3 1 2 3 2 2 1 2 3 4 4 5 4 5 6 8 6 6 8 11 10 9 7 6 6 7
Height
3150 3149 3149 3148 3152 3147 3146 3148 3147 3146 3147 3147 3148 3147 3150 3149 3150 3154 3152 3152 3152 3153 3152 3152 3151 3150 3149 3147 3146 3144 3142 3141 3139 3137 3136 3135 3134 3133 3133 3133 3134 3134 3134 3134 3135 3134 3135 3134 3134
3147 3148 3147 3147 3148 3145 3145 3146 3146 3146 3146 3146 3147 3145 3146 3147 3148 3150 3151 3151 3151 3152 3152 3151 3151 3150 3148 3147 3145 3144 3143 3141 3139 3137 3136 3134 3134 3133 3133 3133 3133 3133 3133 3133 3133 3133 3132 3132 3131
3144 3145 3146 3145 3142 3143 3143 3144 3144 3144 3144 3145 3145 3144 3144 3146 3148 3149 3150 3151 3151 3151 3151 3151 3150 3149 3148 3147 3146 3144 3142 3141 3139 3136 3135 3134 3133 3132 3132 3132 3131 3132 3131 3131 3131 3130 3130 3129 3128
3141 3142 3144 3140 3139 3140 3141 3142 3142 3144 3144 3143 3143 3142 3143 3144 3146 3148 3150 3150 3150 3150 3150 3150 3150 3148 3147 3146 3146 3144 3143 3140 3138 3136 3134 3133 3132 3132 3132 3130 3130 3130 3129 3129 3128 3127 3127 3126 3125
3137 3138 3138 3136 3136 3138 3139 3139 3140 3141 3142 3141 3140 3140 3142 3142 3144 3146 3148 3149 3149 3149 3149 3149 3148 3148 3147 3146 3145 3144 3142 3140 3137 3135 3134 3132 3131 3130 3129 3129 3128 3127 3127 3126 3125 3125 3124 3123 3122
3133 3134 3133 3132 3132 3135 3135 3137 3136 3138 3139 3139 3139 3138 3139 3141 3142 3143 3145 3147 3147 3148 3148 3148 3147 3147 3146 3145 3144 3143 3141 3139 3137 3135 3133 3131 3129 3129 3128 3127 3126 3125 3125 3124 3123 3122 3121 3120 3119
3127 3128 3127 3128 3129 3130 3133 3134 3133 3136 3137 3137 3136 3136 3137 3139 3140 3140 3143 3144 3145 3146 3146 3146 3146 3146 3145 3144 3143 3142 3140 3138 3137 3135 3132 3130 3129 3127 3127 3126 3125 3124 3123 3122 3121 3120 3119 3118 3117
3122 3123 3121 3122 3125 3126 3130 3131 3132 3134 3133 3134 3134 3133 3135 3136 3137 3138 3139 3141 3142 3143 3144 3144 3144 3144 3143 3143 3142 3141 3139 3138 3137 3134 3133 3130 3128 3126 3125 3125 3123 3122 3121 3120 3120 3119 3117 3116 3115
3116 3115 3111 3114 3120 3122 3126 3128 3129 3130 3129 3129 3131 3131 3131 3132 3134 3135 3136 3138 3140 3141 3142 3142 3142 3142 3142 3142 3140 3139 3139 3138 3136 3135 3132 3131 3129 3127 3126 3125 3124 3123 3121 3120 3119 3118 3116 3115 3113
3108 3104 3103 3109 3114 3117 3122 3124 3125 3126 3125 3125 3127 3128 3127 3129 3130 3132 3133 3135 3137 3138 3139 3139 3140 3140 3140 3140 3138 3137 3137 3136 3135 3134 3132 3130 3128 3126 3124 3124 3122 3121 3120 3118 3116 3115 3114 3112 3111
3099 3093 3100 3104 3108 3114 3115 3116 3120 3120 3120 3122 3123 3126 3124 3125 3126 3127 3130 3132 3134 3135 3136 3137 3137 3137 3138 3137 3136 3135 3134 3133 3132 3132 3130 3128 3126 3125 3123 3122 3120 3118 3116 3115 3114 3113 3111 3110 3109
3092 3092 3096 3100 3105 3108 3109 3113 3112 3113 3115 3118 3119 3121 3122 3122 3122 3123 3125 3129 3129 3132 3132 3134 3134 3135 3135 3134 3134 3133 3131 3130 3129 3128 3127 3126 3124 3123 3121 3119 3118 3116 3115 3113 3112 3110 3107 3105 3102
3086 3088 3092 3096 3100 3102 3106 3104 3106 3106 3110 3112 3113 3114 3117 3119 3118 3119 3121 3122 3125 3128 3128 3129 3130 3130 3131 3131 3131 3130 3128 3127 3127 3126 3125 3124 3122 3120 3118 3116 3115 3113 3111 3109 3107 3104 3102 3100 3098
3082 3082 3085 3089 3093 3096 3098 3098 3101 3101 3106 3106 3106 3108 3111 3112 3114 3114 3115 3117 3120 3123 3124 3124 3125 3125 3125 3126 3125 3125 3125 3124 3123 3122 3121 3119 3118 3116 3115 3113 3111 3109 3107 3104 3102 3100 3098 3095 3093
3076 3077 3079 3081 3086 3089 3094 3085 3085 3097 3100 3100 3101 3104 3104 3105 3106 3108 3110 3111 3114 3117 3118 3120 3120 3120 3120 3121 3121 3121 3120 3120 3120 3118 3117 3116 3114 3113 3111 3109 3107 3105 3102 3100 3097 3094 3091 3089 3086
3073 3074 3073 3077 3082 3085 3091 3063 3084 3092 3094 3094 3096 3097 3098 3100 3101 3102 3104 3106 3107 3109 3112 3114 3114 3114 3116 3116 3116 3116 3116 3115 3116 3114 3113 3113 3111 3109 3107 3105 3103 3100 3097 3095 3092 3089 3085 3082 3079
3070 3067 3068 3072 3077 3081 3081 3065 3079 3086 3088 3088 3090 3091 3093 3094 3095 3097 3099 3100 3101 3102 3105 3107 3108 3109 3110 3112 3112 3112 3112 3112 3111 3110 3109 3108 3107 3106 3104 3101 3098 3096 3093 3090 3086 3082 3078 3076 3074
3065 3064 3063 3065 3073 3075 3073 3063 3074 3080 3081 3082 3085 3086 3086 3087 3090 3093 3094 3095 3096 3096 3098 3100 3102 3104 3106 3107 3108 3108 3108 3108 3107 3106 3105 3105 3103 3102 3099 3097 3095 3091 3088 3084 3080 3077 3072 3070 3068
3060 3059 3057 3062 3068 3070 3066 3062 3067 3073 3073 3075 3077 3080 3081 3083 3086 3088 3089 3090 3091 3091 3092 3093 3096 3099 3101 3103 3104 3104 3104 3104 3104 3103 3102 3101 3100 3098 3096 3093 3090 3086 3082 3079 3076 3073 3069 3064 3062
3055 3054 3052 3059 3065 3065 3060 3053 3058 3061 3063 3068 3071 3073 3076 3078 3082 3083 3084 3085 3085 3086 3087 3090 3093 3095 3097 3099 3100 3100 3100 3100 3100 3099 3098 3097 3096 3094 3091 3088 3084 3081 3077 3074 3070 3068 3064 3058 3054
3048 3049 3054 3057 3061 3056 3057 3043 3048 3051 3055 3061 3064 3068 3070 3073 3077 3078 3079 3080 3081 3082 3084 3087 3090 3092 3093 3095 3096 3096 3097 3097 3097 3096 3095 3093 3092 3089 3086 3083 3080 3076 3072 3069 3065 3061 3058 3054 3048
3041 3048 3051 3053 3058 3051 3055 3040 3039 3045 3047 3052 3056 3060 3063 3067 3071 3072 3074 3076 3078 3079 3082 3085 3087 3089 3090 3091 3092 3093 3093 3094 3094 3093 3091 3089 3087 3085 3082 3079 3075 3072 3067 3063 3059 3055 3051 3048 3043
3037 3045 3047 3050 3050 3052 3045 3048 3026 3035 3035 3039 3045 3051 3055 3060 3065 3067 3070 3072 3074 3076 3079 3082 3084 3086 3086 3087 3089 3090 3091 3091 3091 3089 3087 3085 3083 3080 3077 3074 3070 3065 3061 3057 3053 3048 3043 3039 3035
3041 3042 3044 3045 3046 3040 3031 3040 3020 3024 3025 3033 3038 3043 3047 3053 3058 3061 3065 3067 3071 3073 3076 3079 3081 3082 3083 3085 3086 3088 3088 3088 3088 3086 3084 3081 3079 3075 3072 3067 3063 3059 3055 3051 3047 3042 3037 3032 3026
3035 3040 3038 3039 3036 3024 3026 3027 3012 3017 3022 3026 3030 3036 3041 3046 3052 3055 3059 3062 3066 3069 3073 3075 3077 3079 3081 3082 3084 3085 3085 3085 3084 3082 3080 3077 3073 3069 3065 3062 3058 3054 3049 3045 3040 3035 3029 3024 3019
3024 3029 3029 3028 3027 3022 3026 3011 3002 3010 3017 3020 3023 3027 3034 3040 3045 3049 3055 3059 3062 3065 3069 3072 3074 3076 3078 3079 3081 3081 3081 3080 3079 3077 3074 3071 3067 3064 3060 3056 3052 3047 3042 3037 3032 3027 3021 3016 3011
3019 3021 3022 3025 3021 3020 3010 3004 3004 3006 3008 3011 3015 3017 3020 3030 3039 3044 3049 3053 3057 3062 3066 3069 3072 3073 3075 3076 3077 3078 3077 3076 3074 3071 3069 3066 3062 3059 3055 3050 3045 3040 3034 3029 3023 3018 3012 3008 3002
3010 3014 3021 3025 3022 3013 3001 2999 2994 2993 2997 3005 3008 3014 3019 3028 3033 3039 3043 3048 3053 3058 3062 3065 3068 3070 3072 3073 3074 3074 3072 3071 3069 3067 3063 3060 3056 3052 3048 3043 3037 3032 3027 3020 3014 3009 3003 2998 2992
3004 3007 3009 3013 3014 3008 2999 2993 2988 2989 2993 2999 3007 3014 3019 3024 3030 3034 3039 3045 3050 3054 3059 3062 3065 3067 3069 3069 3069 3069 3068 3066 3064 3061 3057 3054 3050 3045 3040 3035 3030 3024 3018 3012 3005 2999 2993 2987 2980
2994 2998 3002 3004 3006 3007 3002 2993 2987 2989 2994 3003 3009 3013 3018 3023 3027 3031 3036 3040 3045 3051 3055 3059 3062 3064 3065 3065 3065 3064 3063 3061 3059 3055 3051 3048 3043 3038 3033 3027 3021 3015 3009 3002 2996 2990 2983 2977 2969